Time,TemperatureF,DewpointF,PressureIn,WindDirection,WindDirectionDegrees,WindSpeedMPH,WindSpeedGustMPH,Humidity,HourlyPrecipIn,Conditions,Clouds,dailyrainin,SoftwareType,DateUTC
2013-09-27 00:05:00,53.3,50.1,30.00,East,96,0.0,0.0,89,0.00,,,0.00,Wunderground v.1.13,2013-09-27 05:05:00,
2013-09-27 00:15:00,53.1,50.2,30.01,East,96,0.0,0.0,90,0.00,,,0.00,Wunderground v.1.13,2013-09-27 05:15:00,
2013-09-27 00:20:00,52.9,50.0,30.01,East,96,0.0,0.0,90,0.00,,,0.00,Wunderground v.1.13,2013-09-27 05:20:00,
2013-09-27 00:30:00,52.6,50.0,30.00,East,96,0.0,0.0,91,0.00,,,0.00,Wunderground v.1.13,2013-09-27 05:30:00,
2013-09-27 00:35:00,52.5,49.9,30.00,East,96,0.0,0.0,91,0.00,,,0.00,Wunderground v.1.13,2013-09-27 05:35:00,
2013-09-27 00:45:00,52.2,49.9,30.00,East,96,0.0,0.0,92,0.00,,,0.00,Wunderground v.1.13,2013-09-27 05:45:00,
2013-09-27 00:55:00,52.0,49.7,30.00,East,96,0.0,0.0,92,0.00,,,0.00,Wunderground v.1.13,2013-09-27 05:55:00,
2013-09-27 01:00:00,51.9,49.6,30.00,East,96,0.0,0.0,92,0.00,,,0.00,Wunderground v.1.13,2013-09-27 06:00:00,
2013-09-27 01:05:00,51.7,49.5,30.00,East,96,0.0,0.0,92,0.00,,,0.00,Wunderground v.1.13,2013-09-27 06:05:00,
2013-09-27 01:15:00,51.4,49.4,30.01,East,96,0.0,0.0,93,0.00,,,0.00,Wunderground v.1.13,2013-09-27 06:15:00,
2013-09-27 01:25:00,51.1,49.1,30.01,East,96,0.0,0.0,93,0.00,,,0.00,Wunderground v.1.13,2013-09-27 06:25:00,
2013-09-27 01:30:00,51.1,49.1,30.01,East,96,0.0,0.0,93,0.00,,,0.00,Wunderground v.1.13,2013-09-27 06:30:00,
2013-09-27 01:35:00,51.1,49.1,30.01,East,96,0.0,0.0,93,0.00,,,0.00,Wunderground v.1.13,2013-09-27 06:35:00,
2013-09-27 01:45:00,51.3,49.6,30.01,East,96,0.0,0.0,94,0.00,,,0.00,Wunderground v.1.13,2013-09-27 06:45:00,
2013-09-27 01:50:00,51.3,49.6,30.01,East,96,0.0,0.0,94,0.00,,,0.00,Wunderground v.1.13,2013-09-27 06:50:00,
2013-09-27 02:00:00,51.9,50.2,30.01,East,96,0.0,0.0,94,0.00,,,0.00,Wunderground v.1.13,2013-09-27 07:00:00,
2013-09-27 02:05:00,51.9,50.2,30.01,East,96,0.0,0.0,94,0.00,,,0.00,Wunderground v.1.13,2013-09-27 07:05:00,
2013-09-27 02:15:00,51.9,50.5,30.01,East,96,0.0,0.0,95,0.00,,,0.00,Wunderground v.1.13,2013-09-27 07:15:00,
2013-09-27 02:25:00,51.9,50.5,30.01,East,96,0.0,0.0,95,0.00,,,0.00,Wunderground v.1.13,2013-09-27 07:25:00,
2013-09-27 02:30:00,51.7,50.3,30.01,East,96,0.0,0.0,95,0.00,,,0.00,Wunderground v.1.13,2013-09-27 07:30:00,
2013-09-27 02:35:00,51.6,50.2,30.01,East,96,0.0,0.0,95,0.00,,,0.00,Wunderground v.1.13,2013-09-27 07:35:00,
2013-09-27 02:45:00,51.0,49.6,30.01,East,96,0.0,0.0,95,0.00,,,0.00,Wunderground v.1.13,2013-09-27 07:45:00,
2013-09-27 02:50:00,50.8,49.4,30.01,East,96,0.0,0.0,95,0.00,,,0.00,Wunderground v.1.13,2013-09-27 07:50:00,
2013-09-27 03:00:00,50.5,49.1,30.01,East,96,0.0,0.0,95,0.00,,,0.00,Wunderground v.1.13,2013-09-27 08:00:00,
2013-09-27 03:05:00,50.5,49.1,30.01,East,96,0.0,0.0,95,0.00,,,0.00,Wunderground v.1.13,2013-09-27 08:05:00,
2013-09-27 03:15:00,50.7,49.3,30.01,East,96,0.0,0.0,95,0.00,,,0.00,Wunderground v.1.13,2013-09-27 08:15:00,
2013-09-27 03:20:00,50.8,49.4,30.01,East,96,0.0,0.0,95,0.00,,,0.00,Wunderground v.1.13,2013-09-27 08:20:00,
2013-09-27 03:30:00,50.8,49.7,30.02,East,96,0.0,0.0,96,0.00,,,0.00,Wunderground v.1.13,2013-09-27 08:30:00,
2013-09-27 03:35:00,51.3,50.2,30.02,East,96,0.0,0.0,96,0.00,,,0.00,Wunderground v.1.13,2013-09-27 08:35:00,
2013-09-27 03:40:00,51.6,50.5,30.02,East,96,0.0,0.0,96,0.00,,,0.00,Wunderground v.1.13,2013-09-27 08:40:00,
2013-09-27 03:50:00,51.7,50.6,30.02,East,96,0.0,0.0,96,0.00,,,0.00,Wunderground v.1.13,2013-09-27 08:50:00,
2013-09-27 03:55:00,51.7,50.6,30.02,East,96,0.0,0.0,96,0.00,,,0.00,Wunderground v.1.13,2013-09-27 08:55:00,
2013-09-27 04:00:00,51.7,50.6,30.02,East,96,0.0,0.0,96,0.00,,,0.00,Wunderground v.1.13,2013-09-27 09:00:00,
2013-09-27 04:15:00,51.9,50.8,30.02,East,96,0.0,0.0,96,0.00,,,0.00,Wunderground v.1.13,2013-09-27 09:15:00,
2013-09-27 04:25:00,52.8,51.7,30.02,East,96,0.0,0.0,96,0.00,,,0.00,Wunderground v.1.13,2013-09-27 09:25:00,
2013-09-27 04:30:00,52.9,51.8,30.02,East,96,0.0,0.0,96,0.00,,,0.00,Wunderground v.1.13,2013-09-27 09:30:00,
2013-09-27 04:40:00,53.3,52.2,30.02,East,96,0.0,0.0,96,0.00,,,0.00,Wunderground v.1.13,2013-09-27 09:40:00,
2013-09-27 04:50:00,53.3,52.2,30.02,East,96,0.0,0.0,96,0.00,,,0.00,Wunderground v.1.13,2013-09-27 09:50:00,
2013-09-27 04:55:00,53.3,52.2,30.02,East,96,0.0,0.0,96,0.00,,,0.00,Wunderground v.1.13,2013-09-27 09:55:00,
2013-09-27 05:05:00,53.2,52.1,30.02,East,96,0.0,0.0,96,0.00,,,0.00,Wunderground v.1.13,2013-09-27 10:05:00,
2013-09-27 05:15:00,52.9,51.8,30.02,East,96,0.0,0.0,96,0.00,,,0.00,Wunderground v.1.13,2013-09-27 10:15:00,
2013-09-27 05:20:00,52.9,51.8,30.02,East,96,0.0,0.0,96,0.00,,,0.00,Wunderground v.1.13,2013-09-27 10:20:00,
2013-09-27 05:25:00,53.1,52.3,30.02,East,96,0.0,0.0,97,0.00,,,0.00,Wunderground v.1.13,2013-09-27 10:25:00,
2013-09-27 05:35:00,53.6,52.8,30.03,East,96,0.0,0.0,97,0.00,,,0.00,Wunderground v.1.13,2013-09-27 10:35:00,
2013-09-27 05:45:00,53.6,52.8,30.04,East,96,0.0,0.0,97,0.00,,,0.00,Wunderground v.1.13,2013-09-27 10:45:00,
2013-09-27 05:50:00,53.3,52.2,30.04,East,96,0.0,0.0,96,0.00,,,0.00,Wunderground v.1.13,2013-09-27 10:50:00,
2013-09-27 06:00:00,53.1,52.0,30.04,East,96,0.0,0.0,96,0.00,,,0.00,Wunderground v.1.13,2013-09-27 11:00:00,
2013-09-27 06:05:00,53.1,52.3,30.04,East,96,0.0,1.0,97,0.00,,,0.00,Wunderground v.1.13,2013-09-27 11:05:00,
2013-09-27 06:15:00,52.9,52.1,30.04,East,96,0.0,1.0,97,0.00,,,0.00,Wunderground v.1.13,2013-09-27 11:15:00,
2013-09-27 06:20:00,52.9,52.1,30.04,East,96,0.0,1.0,97,0.00,,,0.00,Wunderground v.1.13,2013-09-27 11:20:00,
2013-09-27 06:30:00,53.2,52.4,30.05,East,96,0.0,1.0,97,0.00,,,0.00,Wunderground v.1.13,2013-09-27 11:30:00,
2013-09-27 06:35:00,53.2,52.4,30.05,East,96,0.0,0.0,97,0.00,,,0.00,Wunderground v.1.13,2013-09-27 11:35:00,
2013-09-27 06:40:00,53.2,52.4,30.05,East,96,0.0,0.0,97,0.00,,,0.00,Wunderground v.1.13,2013-09-27 11:40:00,
2013-09-27 06:50:00,53.2,52.4,30.06,East,96,0.0,0.0,97,0.00,,,0.00,Wunderground v.1.13,2013-09-27 11:50:00,
2013-09-27 06:55:00,53.2,52.4,30.06,East,96,0.0,0.0,97,0.00,,,0.00,Wunderground v.1.13,2013-09-27 11:55:00,
2013-09-27 07:05:00,52.9,52.1,30.06,East,96,0.0,0.0,97,0.00,,,0.00,Wunderground v.1.13,2013-09-27 12:05:00,
2013-09-27 07:15:00,53.3,52.5,30.06,East,96,0.0,0.0,97,0.00,,,0.00,Wunderground v.1.13,2013-09-27 12:15:00,
2013-09-27 07:25:00,53.5,52.7,30.06,East,96,0.0,0.0,97,0.00,,,0.00,Wunderground v.1.13,2013-09-27 12:25:00,
2013-09-27 07:30:00,53.8,53.0,30.06,East,96,0.0,0.0,97,0.00,,,0.00,Wunderground v.1.13,2013-09-27 12:30:00,
2013-09-27 07:35:00,54.1,53.3,30.06,East,96,0.0,0.0,97,0.00,,,0.00,Wunderground v.1.13,2013-09-27 12:35:00,
2013-09-27 07:45:00,54.7,53.9,30.06,East,96,0.0,0.0,97,0.00,,,0.00,Wunderground v.1.13,2013-09-27 12:45:00,
2013-09-27 07:50:00,55.0,54.2,30.06,East,96,0.0,0.0,97,0.00,,,0.00,Wunderground v.1.13,2013-09-27 12:50:00,
2013-09-27 07:55:00,55.1,54.3,30.06,East,96,0.0,0.0,97,0.00,,,0.00,Wunderground v.1.13,2013-09-27 12:55:00,
2013-09-27 08:05:00,55.7,54.9,30.06,East,96,0.0,0.0,97,0.00,,,0.00,Wunderground v.1.13,2013-09-27 13:05:00,
2013-09-27 08:15:00,56.2,55.4,30.06,ESE,103,0.0,0.0,97,0.00,,,0.00,Wunderground v.1.13,2013-09-27 13:15:00,
2013-09-27 08:20:00,56.5,55.7,30.06,ESE,103,0.0,0.0,97,0.00,,,0.00,Wunderground v.1.13,2013-09-27 13:20:00,
2013-09-27 08:25:00,56.7,55.6,30.06,ESE,118,0.0,0.0,96,0.00,,,0.00,Wunderground v.1.13,2013-09-27 13:25:00,
2013-09-27 08:35:00,57.3,55.9,30.06,SSE,165,0.0,4.0,95,0.00,,,0.00,Wunderground v.1.13,2013-09-27 13:35:00,
2013-09-27 08:40:00,57.6,55.9,30.06,SSE,165,0.0,4.0,94,0.00,,,0.00,Wunderground v.1.13,2013-09-27 13:40:00,
2013-09-27 08:45:00,58.1,55.8,30.06,SE,142,0.0,4.0,92,0.00,,,0.00,Wunderground v.1.13,2013-09-27 13:45:00,
2013-09-27 08:50:00,58.6,55.7,30.06,SE,142,0.0,4.0,90,0.00,,,0.00,Wunderground v.1.13,2013-09-27 13:50:00,
2013-09-27 09:00:00,59.6,55.7,30.06,SE,134,0.0,4.0,87,0.00,,,0.00,Wunderground v.1.13,2013-09-27 14:00:00,
2013-09-27 09:05:00,60.4,55.5,30.06,SE,140,0.0,9.0,84,0.00,,,0.00,Wunderground v.1.13,2013-09-27 14:05:00,
2013-09-27 09:15:00,61.6,55.4,30.07,SE,143,1.0,1.0,80,0.00,,,0.00,Wunderground v.1.13,2013-09-27 14:15:00,
2013-09-27 09:20:00,62.0,55.1,30.07,SE,138,0.0,9.0,78,0.00,,,0.00,Wunderground v.1.13,2013-09-27 14:20:00,
2013-09-27 09:25:00,62.4,54.7,30.07,SSE,147,0.0,9.0,76,0.00,,,0.00,Wunderground v.1.13,2013-09-27 14:25:00,
2013-09-27 09:35:00,63.4,54.6,30.07,ESE,104,0.0,6.0,73,0.00,,,0.00,Wunderground v.1.13,2013-09-27 14:35:00,
2013-09-27 09:40:00,63.9,55.1,30.07,ESE,105,0.0,6.0,73,0.00,,,0.00,Wunderground v.1.13,2013-09-27 14:40:00,
2013-09-27 09:45:00,64.3,55.1,30.06,SE,134,0.0,6.0,72,0.00,,,0.00,Wunderground v.1.13,2013-09-27 14:45:00,
2013-09-27 09:55:00,65.3,54.9,30.06,SE,131,0.0,6.0,69,0.00,,,0.00,Wunderground v.1.13,2013-09-27 14:55:00,
2013-09-27 10:00:00,65.6,54.8,30.06,SE,126,0.0,6.0,68,0.00,,,0.00,Wunderground v.1.13,2013-09-27 15:00:00,
2013-09-27 10:05:00,66.0,54.3,30.06,SSE,150,1.0,1.0,66,0.00,,,0.00,Wunderground v.1.13,2013-09-27 15:05:00,
2013-09-27 10:15:00,67.1,54.5,30.06,SE,125,0.0,7.0,64,0.00,,,0.00,Wunderground v.1.13,2013-09-27 15:15:00,
2013-09-27 10:20:00,67.8,54.7,30.06,SSE,148,0.0,7.0,63,0.00,,,0.00,Wunderground v.1.13,2013-09-27 15:20:00,
2013-09-27 10:25:00,68.4,54.9,30.06,East,98,0.0,7.0,62,0.00,,,0.00,Wunderground v.1.13,2013-09-27 15:25:00,
2013-09-27 10:35:00,69.3,55.7,30.06,ESE,118,1.0,1.0,62,0.00,,,0.00,Wunderground v.1.13,2013-09-27 15:35:00,
2013-09-27 10:40:00,69.4,54.0,30.06,SE,143,1.0,1.0,58,0.00,,,0.00,Wunderground v.1.13,2013-09-27 15:40:00,
2013-09-27 10:45:00,69.9,54.9,30.05,SE,135,1.0,1.0,59,0.00,,,0.00,Wunderground v.1.13,2013-09-27 15:45:00,
2013-09-27 10:55:00,70.8,55.3,30.05,SE,144,1.0,1.0,58,0.00,,,0.00,Wunderground v.1.13,2013-09-27 15:55:00,
2013-09-27 11:00:00,71.1,56.0,30.05,ESE,114,1.0,1.0,59,0.00,,,0.00,Wunderground v.1.13,2013-09-27 16:00:00,
2013-09-27 11:05:00,71.5,55.5,30.05,SSE,159,0.0,8.0,57,0.00,,,0.00,Wunderground v.1.13,2013-09-27 16:05:00,
2013-09-27 11:15:00,72.8,56.2,30.05,SSE,155,1.0,1.0,56,0.00,,,0.00,Wunderground v.1.13,2013-09-27 16:15:00,
2013-09-27 11:20:00,73.5,55.3,30.05,SE,144,0.0,8.0,53,0.00,,,0.00,Wunderground v.1.13,2013-09-27 16:20:00,
2013-09-27 11:25:00,73.9,54.1,30.05,SSE,148,1.0,1.0,50,0.00,,,0.00,Wunderground v.1.13,2013-09-27 16:25:00,
2013-09-27 11:30:00,74.2,54.9,30.05,SSE,152,1.0,1.0,51,0.00,,,0.00,Wunderground v.1.13,2013-09-27 16:30:00,
2013-09-27 11:35:00,74.6,54.2,30.05,South,184,1.0,1.0,49,0.00,,,0.00,Wunderground v.1.13,2013-09-27 16:35:00,
2013-09-27 11:45:00,75.1,53.5,30.04,South,172,3.0,3.0,47,0.00,,,0.00,Wunderground v.1.13,2013-09-27 16:45:00,
2013-09-27 11:50:00,75.3,54.3,30.04,SSE,164,3.0,3.0,48,0.00,,,0.00,Wunderground v.1.13,2013-09-27 16:50:00,
2013-09-27 12:00:00,75.6,54.5,30.04,SW,219,3.0,3.0,48,0.00,,,0.00,Wunderground v.1.13,2013-09-27 17:00:00,
2013-09-27 12:05:00,76.0,53.7,30.04,SSW,206,3.0,11.0,46,0.00,,,0.00,Wunderground v.1.13,2013-09-27 17:05:00,
2013-09-27 12:15:00,76.0,53.1,30.03,South,188,3.0,11.0,45,0.00,,,0.00,Wunderground v.1.13,2013-09-27 17:15:00,
2013-09-27 12:20:00,76.3,52.8,30.03,SE,134,3.0,3.0,44,0.00,,,0.00,Wunderground v.1.13,2013-09-27 17:20:00,
2013-09-27 12:30:00,76.8,53.2,30.02,East,94,3.0,3.0,44,0.00,,,0.00,Wunderground v.1.13,2013-09-27 17:30:00,
2013-09-27 12:35:00,77.2,53.0,30.02,East,88,3.0,13.0,43,0.00,,,0.00,Wunderground v.1.13,2013-09-27 17:35:00,
2013-09-27 12:40:00,77.2,51.7,30.02,SSE,152,3.0,13.0,41,0.00,,,0.00,Wunderground v.1.13,2013-09-27 17:40:00,
2013-09-27 12:50:00,77.6,51.4,30.02,ESE,123,2.0,13.0,40,0.00,,,0.00,Wunderground v.1.13,2013-09-27 17:50:00,
2013-09-27 12:55:00,77.7,51.5,30.02,South,190,2.0,13.0,40,0.00,,,0.00,Wunderground v.1.13,2013-09-27 17:55:00,
2013-09-27 13:00:00,77.9,52.3,30.02,South,186,3.0,3.0,41,0.00,,,0.00,Wunderground v.1.13,2013-09-27 18:00:00,
2013-09-27 13:05:00,78.1,53.8,30.02,South,174,3.0,3.0,43,0.00,,,0.00,Wunderground v.1.13,2013-09-27 18:05:00,
2013-09-27 13:15:00,78.1,52.5,30.01,SSE,156,3.0,11.0,41,0.00,,,0.00,Wunderground v.1.13,2013-09-27 18:15:00,
2013-09-27 13:20:00,78.5,53.5,30.01,ESE,104,2.0,11.0,42,0.00,,,0.00,Wunderground v.1.13,2013-09-27 18:20:00,
2013-09-27 13:30:00,78.1,53.8,30.00,East,87,2.0,2.0,43,0.00,,,0.00,Wunderground v.1.13,2013-09-27 18:30:00,
2013-09-27 13:35:00,78.3,52.0,30.00,SSE,155,3.0,12.0,40,0.00,,,0.00,Wunderground v.1.13,2013-09-27 18:35:00,
2013-09-27 13:40:00,78.5,52.2,30.00,South,178,2.0,12.0,40,0.00,,,0.00,Wunderground v.1.13,2013-09-27 18:40:00,
2013-09-27 13:50:00,78.5,51.5,30.00,SE,129,3.0,12.0,39,0.00,,,0.00,Wunderground v.1.13,2013-09-27 18:50:00,
2013-09-27 13:55:00,78.6,51.6,30.00,SSE,159,2.0,12.0,39,0.00,,,0.00,Wunderground v.1.13,2013-09-27 18:55:00,
2013-09-27 14:05:00,78.6,50.1,29.99,SSE,153,5.0,5.0,37,0.00,,,0.00,Wunderground v.1.13,2013-09-27 19:05:00,
2013-09-27 14:15:00,79.2,49.9,29.99,SSE,153,2.0,2.0,36,0.00,,,0.00,Wunderground v.1.13,2013-09-27 19:15:00,
2013-09-27 14:25:00,79.4,50.1,29.99,ESE,103,4.0,4.0,36,0.00,,,0.00,Wunderground v.1.13,2013-09-27 19:25:00,
2013-09-27 14:30:00,79.2,50.7,29.98,ESE,103,3.0,3.0,37,0.00,,,0.00,Wunderground v.1.13,2013-09-27 19:30:00,
2013-09-27 14:35:00,78.8,51.7,29.98,SSE,166,3.0,12.0,39,0.00,,,0.00,Wunderground v.1.13,2013-09-27 19:35:00,
2013-09-27 14:45:00,79.2,52.1,29.98,SSE,160,3.0,12.0,39,0.00,,,0.00,Wunderground v.1.13,2013-09-27 19:45:00,
2013-09-27 14:50:00,79.4,49.4,29.98,SE,130,3.0,3.0,35,0.00,,,0.00,Wunderground v.1.13,2013-09-27 19:50:00,
2013-09-27 14:55:00,79.6,51.8,29.98,SE,135,4.0,12.0,38,0.00,,,0.00,Wunderground v.1.13,2013-09-27 19:55:00,
2013-09-27 15:05:00,79.4,49.4,29.97,SE,139,4.0,4.0,35,0.00,,,0.00,Wunderground v.1.13,2013-09-27 20:05:00,
2013-09-27 15:15:00,79.6,53.1,29.97,SE,137,3.0,3.0,40,0.00,,,0.00,Wunderground v.1.13,2013-09-27 20:15:00,
2013-09-27 15:20:00,79.6,51.8,29.97,South,171,2.0,12.0,38,0.00,,,0.00,Wunderground v.1.13,2013-09-27 20:20:00,
2013-09-27 15:25:00,79.8,52.6,29.97,SSE,157,2.0,12.0,39,0.00,,,0.00,Wunderground v.1.13,2013-09-27 20:25:00,
2013-09-27 15:35:00,79.4,52.3,29.97,East,99,3.0,3.0,39,0.00,,,0.00,Wunderground v.1.13,2013-09-27 20:35:00,
2013-09-27 15:40:00,79.2,52.1,29.97,ESE,104,2.0,14.0,39,0.00,,,0.00,Wunderground v.1.13,2013-09-27 20:40:00,
2013-09-27 15:45:00,79.0,52.6,29.97,South,172,2.0,14.0,40,0.00,,,0.00,Wunderground v.1.13,2013-09-27 20:45:00,
2013-09-27 15:55:00,78.8,53.1,29.97,South,182,3.0,3.0,41,0.00,,,0.00,Wunderground v.1.13,2013-09-27 20:55:00,
2013-09-27 16:00:00,78.8,52.4,29.96,ESE,107,2.0,2.0,40,0.00,,,0.00,Wunderground v.1.13,2013-09-27 21:00:00,
2013-09-27 16:05:00,78.8,52.4,29.96,SE,138,3.0,3.0,40,0.00,,,0.00,Wunderground v.1.13,2013-09-27 21:05:00,
2013-09-27 16:15:00,78.5,53.5,29.96,East,100,2.0,2.0,42,0.00,,,0.00,Wunderground v.1.13,2013-09-27 21:15:00,
2013-09-27 16:20:00,78.3,52.7,29.96,ESE,111,2.0,2.0,41,0.00,,,0.00,Wunderground v.1.13,2013-09-27 21:20:00,
2013-09-27 16:30:00,78.1,54.4,29.95,East,88,3.0,11.0,44,0.00,,,0.00,Wunderground v.1.13,2013-09-27 21:30:00,
2013-09-27 16:35:00,77.7,53.4,29.95,SSE,151,2.0,11.0,43,0.00,,,0.00,Wunderground v.1.13,2013-09-27 21:35:00,
2013-09-27 16:45:00,77.4,53.1,29.95,East,96,3.0,3.0,43,0.00,,,0.00,Wunderground v.1.13,2013-09-27 21:45:00,
2013-09-27 16:50:00,77.2,53.0,29.95,SSE,157,2.0,2.0,43,0.00,,,0.00,Wunderground v.1.13,2013-09-27 21:50:00,
2013-09-27 17:00:00,77.0,52.8,29.95,ESE,103,2.0,11.0,43,0.00,,,0.00,Wunderground v.1.13,2013-09-27 22:00:00,
2013-09-27 17:05:00,76.7,53.1,29.95,SSE,159,1.0,12.0,44,0.00,,,0.00,Wunderground v.1.13,2013-09-27 22:05:00,
2013-09-27 17:15:00,76.3,52.8,29.95,SSE,161,1.0,1.0,44,0.00,,,0.00,Wunderground v.1.13,2013-09-27 22:15:00,
2013-09-27 17:20:00,76.1,53.8,29.95,East,98,1.0,12.0,46,0.00,,,0.00,Wunderground v.1.13,2013-09-27 22:20:00,
2013-09-27 17:30:00,75.3,54.3,29.96,East,96,2.0,2.0,48,0.00,,,0.00,Wunderground v.1.13,2013-09-27 22:30:00,
2013-09-27 17:35:00,74.9,54.4,29.96,East,101,2.0,2.0,49,0.00,,,0.00,Wunderground v.1.13,2013-09-27 22:35:00,
2013-09-27 17:40:00,74.6,54.7,29.96,East,98,1.0,1.0,50,0.00,,,0.00,Wunderground v.1.13,2013-09-27 22:40:00,
2013-09-27 17:45:00,74.0,54.2,29.96,ESE,105,1.0,1.0,50,0.00,,,0.00,Wunderground v.1.13,2013-09-27 22:45:00,
2013-09-27 17:55:00,73.3,54.6,29.96,South,182,1.0,11.0,52,0.00,,,0.00,Wunderground v.1.13,2013-09-27 22:55:00,
2013-09-27 18:00:00,73.0,54.3,29.96,East,101,1.0,11.0,52,0.00,,,0.00,Wunderground v.1.13,2013-09-27 23:00:00,
2013-09-27 18:05:00,72.7,54.1,29.96,ESE,113,2.0,2.0,52,0.00,,,0.00,Wunderground v.1.13,2013-09-27 23:05:00,
2013-09-27 18:15:00,72.1,54.0,29.97,ESE,117,1.0,1.0,53,0.00,,,0.00,Wunderground v.1.13,2013-09-27 23:15:00,
2013-09-27 18:25:00,71.5,53.5,29.97,East,94,1.0,1.0,53,0.00,,,0.00,Wunderground v.1.13,2013-09-27 23:25:00,
2013-09-27 18:30:00,70.9,53.4,29.96,East,94,0.0,11.0,54,0.00,,,0.00,Wunderground v.1.13,2013-09-27 23:30:00,
2013-09-27 18:35:00,70.6,53.1,29.96,East,96,0.0,11.0,54,0.00,,,0.00,Wunderground v.1.13,2013-09-27 23:35:00,
2013-09-27 18:45:00,69.9,52.5,29.96,ESE,110,0.0,11.0,54,0.00,,,0.00,Wunderground v.1.13,2013-09-27 23:45:00,
2013-09-27 18:55:00,69.3,52.9,29.96,ESE,119,0.0,11.0,56,0.00,,,0.00,Wunderground v.1.13,2013-09-27 23:55:00,
2013-09-27 19:00:00,68.9,52.6,29.96,East,96,0.0,11.0,56,0.00,,,0.00,Wunderground v.1.13,2013-09-28 00:00:00,
2013-09-27 19:05:00,68.8,52.5,29.96,East,99,0.0,10.0,56,0.00,,,0.00,Wunderground v.1.13,2013-09-28 00:05:00,
2013-09-27 19:15:00,67.9,52.1,29.96,ESE,115,0.0,10.0,57,0.00,,,0.00,Wunderground v.1.13,2013-09-28 00:15:00,
2013-09-27 19:25:00,67.4,51.6,29.96,SE,126,0.0,10.0,57,0.00,,,0.00,Wunderground v.1.13,2013-09-28 00:25:00,
2013-09-27 19:35:00,66.9,51.6,29.96,ESE,119,0.0,7.0,58,0.00,,,0.00,Wunderground v.1.13,2013-09-28 00:35:00,
2013-09-27 19:40:00,66.4,51.2,29.96,ESE,114,0.0,7.0,58,0.00,,,0.00,Wunderground v.1.13,2013-09-28 00:40:00,
2013-09-27 19:45:00,66.1,51.4,29.97,ESE,122,0.0,7.0,59,0.00,,,0.00,Wunderground v.1.13,2013-09-28 00:45:00,
2013-09-27 19:50:00,66.0,51.7,29.97,SSE,147,0.0,7.0,60,0.00,,,0.00,Wunderground v.1.13,2013-09-28 00:50:00,
2013-09-27 20:00:00,65.5,51.7,29.98,East,94,0.0,7.0,61,0.00,,,0.00,Wunderground v.1.13,2013-09-28 01:00:00,
2013-09-27 20:05:00,65.3,51.5,29.98,ESE,115,0.0,4.0,61,0.00,,,0.00,Wunderground v.1.13,2013-09-28 01:05:00,
2013-09-27 20:15:00,64.7,50.9,29.98,SE,129,0.0,4.0,61,0.00,,,0.00,Wunderground v.1.13,2013-09-28 01:15:00,
2013-09-27 20:20:00,64.5,51.2,29.98,SE,125,0.0,4.0,62,0.00,,,0.00,Wunderground v.1.13,2013-09-28 01:20:00,
2013-09-27 20:25:00,64.2,50.9,29.98,SE,129,0.0,4.0,62,0.00,,,0.00,Wunderground v.1.13,2013-09-28 01:25:00,
2013-09-27 20:35:00,64.0,50.7,29.97,SE,142,0.0,5.0,62,0.00,,,0.00,Wunderground v.1.13,2013-09-28 01:35:00,
2013-09-27 20:40:00,63.9,50.6,29.97,East,97,0.0,5.0,62,0.00,,,0.00,Wunderground v.1.13,2013-09-28 01:40:00,
2013-09-27 20:45:00,63.5,50.2,29.98,SE,128,0.0,5.0,62,0.00,,,0.00,Wunderground v.1.13,2013-09-28 01:45:00,
2013-09-27 20:55:00,63.4,50.1,29.98,East,98,0.0,5.0,62,0.00,,,0.00,Wunderground v.1.13,2013-09-28 01:55:00,
2013-09-27 21:00:00,63.1,49.9,29.98,East,98,0.0,5.0,62,0.00,,,0.00,Wunderground v.1.13,2013-09-28 02:00:00,
2013-09-27 21:05:00,62.9,49.7,29.98,East,98,0.0,6.0,62,0.00,,,0.00,Wunderground v.1.13,2013-09-28 02:05:00,
2013-09-27 21:15:00,62.7,49.5,29.98,East,100,0.0,6.0,62,0.00,,,0.00,Wunderground v.1.13,2013-09-28 02:15:00,
2013-09-27 21:25:00,62.3,49.5,29.98,East,100,0.0,6.0,63,0.00,,,0.00,Wunderground v.1.13,2013-09-28 02:25:00,
2013-09-27 21:30:00,62.1,49.4,29.98,East,100,0.0,6.0,63,0.00,,,0.00,Wunderground v.1.13,2013-09-28 02:30:00,
2013-09-27 21:35:00,62.0,49.3,29.98,East,101,0.0,2.0,63,0.00,,,0.00,Wunderground v.1.13,2013-09-28 02:35:00,
2013-09-27 21:40:00,61.8,49.1,29.98,East,100,0.0,2.0,63,0.00,,,0.00,Wunderground v.1.13,2013-09-28 02:40:00,
2013-09-27 21:50:00,61.3,49.0,29.98,East,100,0.0,2.0,64,0.00,,,0.00,Wunderground v.1.13,2013-09-28 02:50:00,
2013-09-27 21:55:00,61.2,48.9,29.98,East,100,0.0,2.0,64,0.00,,,0.00,Wunderground v.1.13,2013-09-28 02:55:00,
2013-09-27 22:05:00,61.0,48.7,29.98,East,100,0.0,1.0,64,0.00,,,0.00,Wunderground v.1.13,2013-09-28 03:05:00,
2013-09-27 22:15:00,60.7,48.4,29.98,East,101,0.0,1.0,64,0.00,,,0.00,Wunderground v.1.13,2013-09-28 03:15:00,
2013-09-27 22:20:00,60.4,48.6,29.98,East,101,0.0,1.0,65,0.00,,,0.00,Wunderground v.1.13,2013-09-28 03:20:00,
2013-09-27 22:25:00,60.2,48.8,29.98,East,100,0.0,1.0,66,0.00,,,0.00,Wunderground v.1.13,2013-09-28 03:25:00,
2013-09-27 22:35:00,59.9,48.5,29.97,East,100,0.0,0.0,66,0.00,,,0.00,Wunderground v.1.13,2013-09-28 03:35:00,
2013-09-27 22:40:00,59.8,48.8,29.97,East,100,0.0,0.0,67,0.00,,,0.00,Wunderground v.1.13,2013-09-28 03:40:00,
2013-09-27 22:45:00,59.8,48.8,29.97,East,101,0.0,0.0,67,0.00,,,0.00,Wunderground v.1.13,2013-09-28 03:45:00,
2013-09-27 22:50:00,59.6,48.6,29.97,East,101,0.0,0.0,67,0.00,,,0.00,Wunderground v.1.13,2013-09-28 03:50:00,
2013-09-27 23:00:00,59.3,48.7,29.97,East,101,0.0,0.0,68,0.00,,,0.00,Wunderground v.1.13,2013-09-28 04:00:00,
2013-09-27 23:05:00,59.2,49.0,29.97,East,101,0.0,1.0,69,0.00,,,0.00,Wunderground v.1.13,2013-09-28 04:05:00,
2013-09-27 23:10:00,59.0,49.2,29.97,East,101,0.0,1.0,70,0.00,,,0.00,Wunderground v.1.13,2013-09-28 04:10:00,
2013-09-27 23:15:00,58.9,49.1,29.97,East,101,0.0,1.0,70,0.00,,,0.00,Wunderground v.1.13,2013-09-28 04:15:00,
2013-09-27 23:20:00,58.7,48.9,29.97,East,101,0.0,1.0,70,0.00,,,0.00,Wunderground v.1.13,2013-09-28 04:20:00,
2013-09-27 23:25:00,58.7,49.3,29.97,East,101,0.0,1.0,71,0.00,,,0.00,Wunderground v.1.13,2013-09-28 04:25:00,
2013-09-27 23:30:00,58.7,49.3,29.97,East,101,0.0,1.0,71,0.00,,,0.00,Wunderground v.1.13,2013-09-28 04:30:00,
2013-09-27 23:40:00,58.9,49.5,29.97,East,101,0.0,0.0,71,0.00,,,0.00,Wunderground v.1.13,2013-09-28 04:40:00,
2013-09-27 23:45:00,58.9,49.9,29.96,East,101,0.0,0.0,72,0.00,,,0.00,Wunderground v.1.13,2013-09-28 04:45:00,
2013-09-27 23:50:00,59.0,50.0,29.96,East,101,0.0,0.0,72,0.00,,,0.00,Wunderground v.1.13,2013-09-28 04:50:00,
2013-09-27 23:55:00,59.2,50.2,29.96,ESE,108,0.0,0.0,72,0.00,,,0.00,Wunderground v.1.13,2013-09-28 04:55:00,